TimeCST,TemperatureF,Dew PointF,Humidity,Sea Level PressureIn,VisibilityMPH,Wind Direction,Wind SpeedMPH,Gust SpeedMPH,PrecipitationIn,Events,Conditions,WindDirDegrees,DateUTC
12:53 AM,28.9,17.1,61,30.32,10.0,Calm,Calm,-,N/A,,Overcast,0,2013-02-02 06:53:00
1:53 AM,28.9,18.0,64,30.31,10.0,Calm,Calm,-,N/A,,Partly Cloudy,0,2013-02-02 07:53:00
3:53 AM,30.0,19.9,66,30.25,10.0,South,5.8,-,N/A,,Overcast,180,2013-02-02 09:53:00
4:53 AM,30.0,19.9,66,30.22,10.0,South,5.8,-,N/A,,Overcast,180,2013-02-02 10:53:00
5:53 AM,28.9,19.9,69,30.21,10.0,SSW,4.6,-,N/A,,Clear,210,2013-02-02 11:53:00
6:53 AM,28.0,21.0,75,30.21,10.0,SSW,3.5,-,N/A,,Partly Cloudy,210,2013-02-02 12:53:00
7:53 AM,30.0,21.0,69,30.20,10.0,SSW,4.6,-,N/A,,Overcast,210,2013-02-02 13:53:00
8:53 AM,32.0,21.0,64,30.20,10.0,SW,8.1,-,N/A,,Overcast,220,2013-02-02 14:53:00
9:53 AM,33.1,21.9,64,30.20,10.0,WSW,8.1,-,N/A,,Overcast,240,2013-02-02 15:53:00
10:53 AM,33.1,25.0,72,30.20,4.0,SW,6.9,-,0.00,Snow,Light Snow,230,2013-02-02 16:53:00
11:53 AM,35.1,25.0,67,30.17,10.0,SW,8.1,-,0.00,,Partly Cloudy,230,2013-02-02 17:53:00
12:53 PM,43.0,26.1,51,30.13,10.0,SW,9.2,-,N/A,,Clear,230,2013-02-02 18:53:00
1:53 PM,51.1,28.0,41,30.12,10.0,West,9.2,-,N/A,,Clear,280,2013-02-02 19:53:00
2:53 PM,54.0,28.9,38,30.10,10.0,NW,12.7,18.4,N/A,,Clear,310,2013-02-02 20:53:00
3:53 PM,53.1,28.0,38,30.11,10.0,NW,11.5,-,N/A,,Clear,320,2013-02-02 21:53:00
4:53 PM,52.0,28.0,40,30.12,10.0,WNW,11.5,-,N/A,,Mostly Cloudy,290,2013-02-02 22:53:00
5:53 PM,48.9,28.9,46,30.14,10.0,WNW,4.6,-,N/A,,Scattered Clouds,300,2013-02-02 23:53:00
6:53 PM,44.1,28.9,55,30.16,10.0,NW,3.5,-,N/A,,Partly Cloudy,310,2013-02-03 00:53:00
7:53 PM,45.0,28.9,53,30.17,10.0,WNW,4.6,-,N/A,,Mostly Cloudy,300,2013-02-03 01:53:00
8:53 PM,37.0,28.0,70,30.16,10.0,SSW,3.5,-,N/A,,Clear,200,2013-02-03 02:53:00
9:53 PM,36.0,28.0,73,30.15,10.0,Calm,Calm,-,N/A,,Clear,0,2013-02-03 03:53:00
10:53 PM,34.0,28.0,79,30.14,10.0,Calm,Calm,-,N/A,,Clear,0,2013-02-03 04:53:00
11:53 PM,32.0,28.0,85,30.12,10.0,South,3.5,-,N/A,,Clear,180,2013-02-03 05:53:00